Printer-friendly version
Follow the MPC on Twitter Follow the MPC on Facebook The MPC blog
Minor Planet Center

MPEC 2008-J42 : 2008 JP14

The following Minor Planet Electronic Circular may be linked-to from your own Web pages, but must not otherwise be redistributed electronically.

A form allowing access to any MPEC is at the bottom of this page.


Read MPEC 2008-J41 Read MPEC 2008-J43


M.P.E.C. 2008-J42                                Issued 2008 May 8, 15:38 UT

     The Minor Planet Electronic Circulars contain information on unusual
         minor planets and routine data on comets.  They are published
   on behalf of Commission 20 of the International Astronomical Union by the
          Minor Planet Center, Smithsonian Astrophysical Observatory,
                          Cambridge, MA 02138, U.S.A.

             Prepared using the Tamkin Foundation Computer Network

                              MPC@CFA.HARVARD.EDU
          URL http://www.cfa.harvard.edu/iau/mpc.html  ISSN 1523-6714

                                   2008 JP14

Observations:
     K08J14P* C2008 05 01.34539 16 11 07.94 +11 47 01.8          20.0 V EJ042703
     K08J14P  C2008 05 01.35083 16 11 07.80 +11 47 13.3          19.5 V EJ042703
     K08J14P  C2008 05 01.35630 16 11 07.54 +11 47 24.1          19.2 V EJ042703
     K08J14P  C2008 05 01.36173 16 11 07.44 +11 47 34.4          19.0 V EJ042703
     K08J14P  C2008 05 07.35271 16 07 33.27 +15 19 32.8          19.3 V EJ042703
     K08J14P  C2008 05 07.35920 16 07 32.80 +15 19 46.7          19.5 V EJ042703
     K08J14P  C2008 05 07.36566 16 07 32.59 +15 20 01.2          19.4 V EJ042703
     K08J14P  C2008 05 07.37212 16 07 32.16 +15 20 16.4          19.2 V EJ042703
     K08J14P  C2008 05 07.41933 16 07 29.56 +15 22 03.8          19.6 V EJ042703
     K08J14P  C2008 05 07.42132 16 07 29.46 +15 22 09.4          19.3 V EJ042703
     K08J14P 5C2008 05 07.42239616 07 29.611+15 22 11.13         19.2 R EJ042673
     K08J14P  C2008 05 07.42329 16 07 29.42 +15 22 12.8          19.0 V EJ042703
     K08J14P  C2008 05 07.42403 16 07 29.35 +15 22 14.8          19.0 V EJ042703
     K08J14P 5C2008 05 07.42853016 07 29.279+15 22 25.22                EJ042673
     K08J14P 5C2008 05 07.43223416 07 29.073+15 22 33.74                EJ042673
     K08J14P 5C2008 05 07.43685216 07 28.826+15 22 44.04                EJ042673
     K08J14P  C2008 05 07.89015 16 07 07.99 +15 40 04.5          19.1 V EJ042A17
     K08J14P  C2008 05 07.90226 16 07 07.35 +15 40 32.7          19.2 V EJ042A17
     K08J14P  C2008 05 07.91205 16 07 06.80 +15 40 55.3          19.3 V EJ042A17
     K08J14P  C2008 05 07.91747 16 07 06.59 +15 41 07.3                 EJ042J95
     K08J14P  C2008 05 07.92006 16 07 06.45 +15 41 13.1                 EJ042J95
     K08J14P  C2008 05 07.92270 16 07 06.33 +15 41 19.5          19.6 R EJ042J95
     K08J14P  C2008 05 07.94438916 07 05.04 +15 42 11.6          19.3 V EJ042198
     K08J14P  C2008 05 07.94508916 07 05.00 +15 42 13.3          19.4 V EJ042198
     K08J14P  C2008 05 07.94513516 07 04.91 +15 42 13.6          19.0 V EJ042B03
     K08J14P  C2008 05 07.94578916 07 04.96 +15 42 14.9          19.3 V EJ042198
     K08J14P  C2008 05 07.95258416 07 04.56 +15 42 32.0          19.5 V EJ042B03
     K08J14P  C2008 05 07.96227516 07 03.97 +15 42 53.7          19.3 V EJ042B03
     K08J14P 2C2008 05 08.01110 16 07 01.38 +15 44 46.8          19.3 R EJ042012
     K08J14P 2C2008 05 08.01875 16 07 01.00 +15 45 03.7          19.0 R EJ042012
     K08J14P  C2008 05 08.02546 16 07 00.46 +15 45 22.0          19.2 V EJ042A55
     K08J14P 2C2008 05 08.02639 16 07 00.53 +15 45 22.4          19.7 R EJ042012
     K08J14P  C2008 05 08.02836 16 07 00.32 +15 45 29.5          19.2 V EJ042A55
     K08J14P  C2008 05 08.03127 16 07 00.17 +15 45 36.0          19.3 V EJ042A55
     K08J14P  C2008 05 08.03418 16 06 59.98 +15 45 43.1          19.1 V EJ042A55
     K08J14P 2C2008 05 08.05001 16 06 59.29 +15 46 16.8          19.5 R EJ042012
     K08J14P  C2008 05 08.31361 16 06 46.32 +15 56 40.0          18.6 R EJ042651
     K08J14P  C2008 05 08.31579 16 06 46.19 +15 56 44.9          18.7 R EJ042651
     K08J14P  C2008 05 08.31794 16 06 46.07 +15 56 50.0          18.6 R EJ042651

Observer details:
012 Uccle.  Observer T. Pauwels.  0.85-m f/2.5 Schmidt + 3Kx2K CCD.
198 Wildberg.  Observer R. Apitzsch.  0.35-m f/4.2 reflector + CCD.
651 Grasslands Observatory, Tucson.  Observer J. E. McGaha.  0.62-m f/5.1
    Newtonian reflector + CCD.
673 Table Mountain Observatory, Wrightwood.  Observer J. Young.  0.61-m f/16
    Cassegrain + CCD.
703 Catalina Sky Survey.  Observers A. Boattini, R. E. Hill.  Measurers
    E. C. Beshore, A. Boattini, G. J. Garradd, A. R. Gibbs, A. D. Grauer,
    R. E. Hill, R. A. Kowalski, S. M. Larson, R. H. McNaught.  0.68-m Schmidt
    + CCD.
A17 Guidestar Observatory, Weinheim.  Observers M. Emmerich, S. Melchert.
    0.36-m f/6 Schmidt-Cassegrain + CCD.
A55 Osservatorio Astronomico Vallemare di Borbona.  Observer V. S. Casulli.
    0.40-m f/4.5 Newtonian reflector + CCD.
B03 Alter Satzberg, Vienna.  Observer M. Pietschnig.  0.35-m f/5.8
    Schmidt-Cassegrain + CCD.
J95 Great Shefford.  Observer P. Birtwhistle.  0.40-m f/6.0 Schmidt-Cassegrain
    + CCD.

Orbital elements:
2008 JP14                                                Earth MOID = 0.1440 AU
Epoch 2008 May 14.0 TT = JDT 2454600.5                  MPC
M 329.73407              (2000.0)            P               Q
n   0.38273693     Peri.  205.80374     +0.90378888     +0.40301035
a   1.8787506      Node   129.66116     -0.35308905     +0.89233583
e   0.6242921      Incl.   10.78413     -0.24185487     +0.20327179
P   2.58           H   19.2           G   0.15           U   8
Residuals in seconds of arc
080501 703  0.1+  0.5-    080507 673  0.3+  0.4+    080507 B03  1.0+  1.1+
080501 703  0.5+  0.3+    080507 673  0.3+  0.4+    080507 B03  0.3+  0.2+
080501 703  0.8-  0.3+    080507 673  0.3+  0.2+    080508 012  0.7-  0.4+
080501 703  0.2+  0.1-    080507 A17  0.3+  0.0     080508 012  0.0   0.6-
080507 703  0.4+  0.8+    080507 A17  0.4+  0.1-    080508 A55  0.2-  0.4-
080507 703  1.3-  0.2-    080507 A17  0.0   0.4-    080508 012  0.7-  0.3+
080507 703  0.8+  0.4-    080507 J95  0.1-  0.1-    080508 A55  0.1+  0.4+
080507 703  0.3-  0.0     080507 J95  0.2-  0.4-    080508 A55  0.3+  0.1+
080507 703  0.8-  0.5-    080507 J95  0.1+  0.2-    080508 A55  0.1-  0.4+
080507 703  0.7-  0.6+    080507 198  0.1-  0.1+    080508 012  0.4+  0.3-
080507 673  0.3+  0.3+    080507 198  0.2-  0.2+    080508 651  0.1+  0.4+
080507 703  0.3+  0.5-    080507 B03  0.2+  0.1+    080508 651  0.1+  0.2+
080507 703  0.2-  0.2-    080507 198  0.2-  0.1+    080508 651  0.1+  0.3+

Ephemeris:
2008 JP14                a,e,i = 1.88, 0.62, 11                  q = 0.7059
Date    TT    R. A. (2000) Decl.     Delta      r     Elong.  Phase     V
2008 05 04    16 09.82   +13 17.0    0.475    1.421   144.1    24.6    19.5
2008 05 14    16 00.71   +19 56.3    0.378    1.324   140.4    29.1    19.0
2008 05 24    15 42.39   +28 38.4    0.296    1.225   130.3    39.1    18.6
2008 06 03    15 06.28   +40 16.4    0.229    1.125   113.3    55.9    18.3
2008 06 13    13 40.14   +55 10.1    0.181    1.026    88.1    81.8    18.4

Timothy B. Spahr             (C) Copyright 2008 MPC           M.P.E.C. 2008-J42

Read MPEC 2008-J41 Read MPEC 2008-J43


MPEC number:

Enter an MPEC number in one of the following forms:

  • 1997-B01 (the full form)
  • J97B01 (the packed version of the full form)
  • B01 (the abbreviated form)

Valid HTML 4.01!